"Pseudo-MPEC" for CAR40Z2

Created 2024 Sep 5 18:22:07 UT using Find_Orb

Click here for an explanation of pseudo-MPECs

 
 Astrometry: 
     CAR40Z2 1C2024 09 03.35422 23 44 58.14 -06 16 36.3    ~949b 20.6 GVNEOCPG96
     CAR40Z2 1C2024 09 03.35940 23 44 58.23 -06 16 47.1    ~949b 21.4 GVNEOCPG96
     CAR40Z2 1C2024 09 03.36457 23 44 58.42 -06 16 57.3    ~949b 21.4 GVNEOCPG96
     CAR40Z2 1C2024 09 03.36973 23 44 58.46 -06 17 07.4    ~949b 21.9 GVNEOCPG96
     CAR40Z2*1C2024 09 04.33877723 45 19.897-06 47 29.83   ~9497 20.97GVNEOCPG96
     CAR40Z2 1C2024 09 04.34437523 45 19.998-06 47 40.24   ~9497 20.78GVNEOCPG96
     CAR40Z2 1C2024 09 04.34997223 45 20.088-06 47 51.36   ~9497 20.92GVNEOCPG96
     CAR40Z2 1C2024 09 04.35557523 45 20.171-06 48 01.40   ~9497 21.21GVNEOCPG96
     CAR40Z2  C2024 09 04.38487523 45 20.594-06 48 57.60   ~94A7 20.4 GVNEOCPH01
     CAR40Z2  C2024 09 04.38948823 45 20.667-06 49 06.27   ~94A7 20.5 GVNEOCPH01
     CAR40Z2  C2024 09 04.40256523 45 20.885-06 49 30.90   ~94A7 20.6 GVNEOCPH01
     CAR40Z2  C2024 09 04.40741123 45 20.964-06 49 40.11   ~94A7 20.6 GVNEOCPH01
     CAR40Z2 KC2024 09 05.42830723 45 42.380-07 22 01.30   ~95Aq 20.96GVNEOCPI52
     CAR40Z2 KC2024 09 05.43139623 45 42.450-07 22 06.70   ~95Aq 20.95GVNEOCPI52
     CAR40Z2 KC2024 09 05.43760223 45 42.500-07 22 18.70   ~95Aq 21.23GVNEOCPI52

Station data:
(G96) Mt. Lemmon Survey  (N32.442729 W110.788720)  US/Arizona.  Observer E.
   J. Christensen. 1.5-m reflector + 10K CCD.
(H01) Magdalena Ridge Observatory, Socorro  (N33.984833 W107.189333)  US/New
   Mexico.  Observers W. H. Ryan, E. V. Ryan. Measurer W. H. Ryan. 2.4-m
   f/8.9 reflector + CCD.
(I52) Steward Observatory, Mt. Lemmon Station  (N32.442570 W110.788920)
   US/Arizona.  Observers T. A. Pruyne, B. M. Africano, E. J. Christensen, G.
   A. Farneth, D. C. Fuls, A. R. Gibbs, A. D. Grauer, H. Gröller, J. A.
   Johnson, R. A. Kowalski, S. M. Larson, G. J. Leonard, D. Rankin, R. L.
   Seaman, F. C. Shelly, K. W. Wierzchoś. 1.0-m prime focus + CCD.

Orbital elements:  CAR40Z2
   Perihelion 2024 Oct 11.23439 +/- 1.65 TT =  5:37:31 (JD 2460594.73439)
Epoch 2024 Sep  5.0 TT = JDT 2460558.5   Earth MOID: 0.5589      AutoNEOCP
M 351.74085700 +/- 0.6              (J2000 ecliptic)
n   0.22793655 +/- 0.0179           Peri.  207.84591 +/- 1.0
a   2.65415771 +/- 0.139            Node   160.99774 +/- 0.21
e   0.4185468 +/- 0.0225            Incl.   18.25994 +/- 0.7
P   4.32404                H 20.87  G  0.15   U 10.0
q 1.54326836 +/- 0.0215    Q 3.76504706 +/- 0.257
From 15 observations 2024 Sept. 3-5; mean residual 0".40
Residuals in arcseconds: 
240903 G96  .58-  1.2+    240904 G96  .13+  .34+    240904 H01  .07-  .06-    
240903 G96  .55-  .09+    240904 G96  .12+  .20-    240904 H01  .09-  .12-    
240903 G96  .96+  .44-    240904 G96  .01+  .36+    240905 I52  .06+  .26-    
240903 G96  .25+  .89-    240904 H01  .04-  .17-    240905 I52  .37+  .22+    
240904 G96  .04-  .16+    240904 H01  .09-  .13-    240905 I52  .37-  .05+    

Ephemerides (geocentric):
Date (UTC) HH   RA             Dec           delta  r     elong  mag " sig PA
---- --------  ------------   ------------  ------ ------ -----  --- --------
2024 09 05 18  23 45 49.417   -07 32 06.93  .57504 1.5754 168.2 21.2 .309   5
2024 09 05 19  23 45 50.263   -07 33 26.75  .57493 1.5753 168.3 21.2 .304   2
2024 09 05 20  23 45 51.109   -07 34 46.60  .57483 1.5753 168.3 21.2 .301 178
2024 09 05 21  23 45 51.953   -07 36 06.47  .57472 1.5752 168.3 21.2 .298 175
2024 09 05 22  23 45 52.795   -07 37 26.37  .57462 1.5751 168.3 21.2 .296 171
2024 09 05 23  23 45 53.636   -07 38 46.30  .57452 1.5750 168.4 21.2 .296 167
2024 09 06 00  23 45 54.476   -07 40 06.25  .57442 1.5750 168.4 21.2 .298 163
2024 09 06 01  23 45 55.314   -07 41 26.23  .57431 1.5749 168.4 21.2 .301 159
2024 09 06 02  23 45 56.151   -07 42 46.23  .57421 1.5748 168.5 21.2 .306 155
2024 09 06 03  23 45 56.986   -07 44 06.26  .57411 1.5747 168.5 21.2 .313 151
2024 09 06 04  23 45 57.820   -07 45 26.32  .57401 1.5747 168.5 21.2 .321 147
2024 09 06 05  23 45 58.653   -07 46 46.40  .57391 1.5746 168.5 21.2 .332 143
2024 09 06 06  23 45 59.484   -07 48 06.50  .57381 1.5745 168.6 21.2 .344 139
2024 09 06 07  23 46 00.314   -07 49 26.63  .57371 1.5744 168.6 21.2 .357 136
2024 09 06 08  23 46 01.143   -07 50 46.78  .57361 1.5744 168.6 21.2 .373 133
2024 09 06 09  23 46 01.970   -07 52 06.96  .57351 1.5743 168.7 21.2 .390 130
2024 09 06 10  23 46 02.795   -07 53 27.16  .57341 1.5742 168.7 21.2 .409 127
2024 09 06 11  23 46 03.620   -07 54 47.39  .57331 1.5742 168.7 21.2 .429 124
2024 09 06 12  23 46 04.443   -07 56 07.64  .57321 1.5741 168.7 21.2 .450 122
2024 09 06 13  23 46 05.265   -07 57 27.91  .57312 1.5740 168.8 21.2 .473 120
2024 09 06 14  23 46 06.085   -07 58 48.20  .57302 1.5739 168.8 21.2 .496 118
2024 09 06 15  23 46 06.904   -08 00 08.52  .57292 1.5739 168.8 21.2 .521 116
2024 09 06 16  23 46 07.722   -08 01 28.86  .57283 1.5738 168.9 21.2 .547 114
2024 09 06 17  23 46 08.538   -08 02 49.23  .57273 1.5737 168.9 21.2 .574 112
2024 09 06 18  23 46 09.353   -08 04 09.62  .57263 1.5737 168.9 21.2 .603 111
2024 09 06 19  23 46 10.167   -08 05 30.03  .57254 1.5736 168.9 21.2 .632 110
2024 09 06 20  23 46 10.979   -08 06 50.46  .57244 1.5735 169.0 21.2 .661 108
2024 09 06 21  23 46 11.790   -08 08 10.91  .57235 1.5734 169.0 21.2 .692 107
2024 09 06 22  23 46 12.600   -08 09 31.39  .57226 1.5734 169.0 21.2 .724 106
2024 09 06 23  23 46 13.408   -08 10 51.88  .57216 1.5733 169.0 21.2 .756 105
2024 09 07 00  23 46 14.215   -08 12 12.40  .57207 1.5732 169.1 21.2 .790 104
2024 09 07 01  23 46 15.021   -08 13 32.94  .57198 1.5731 169.1 21.2 .824 103
2024 09 07 02  23 46 15.826   -08 14 53.50  .57188 1.5731 169.1 21.2 .858 103
2024 09 07 03  23 46 16.629   -08 16 14.08  .57179 1.5730 169.2 21.2 .894 102
2024 09 07 04  23 46 17.431   -08 17 34.68  .57170 1.5729 169.2 21.1 .930 101
2024 09 07 05  23 46 18.231   -08 18 55.31  .57161 1.5729 169.2 21.1 .967 101
2024 09 07 06  23 46 19.031   -08 20 15.95  .57152 1.5728 169.2 21.1 1.00 100
2024 09 07 07  23 46 19.829   -08 21 36.61  .57143 1.5727 169.3 21.1 1.04  99
2024 09 07 08  23 46 20.625   -08 22 57.29  .57133 1.5726 169.3 21.1 1.08  99
2024 09 07 09  23 46 21.421   -08 24 18.00  .57124 1.5726 169.3 21.1 1.12  99
2024 09 07 10  23 46 22.215   -08 25 38.72  .57116 1.5725 169.3 21.1 1.16  98
2024 09 07 11  23 46 23.008   -08 26 59.46  .57107 1.5724 169.3 21.1 1.20  98
2024 09 07 12  23 46 23.800   -08 28 20.22  .57098 1.5724 169.4 21.1 1.24  97
2024 09 07 13  23 46 24.590   -08 29 41.00  .57089 1.5723 169.4 21.1 1.29  97
2024 09 07 14  23 46 25.379   -08 31 01.80  .57080 1.5722 169.4 21.1 1.33  97
2024 09 07 15  23 46 26.167   -08 32 22.61  .57071 1.5722 169.4 21.1 1.37  96
2024 09 07 16  23 46 26.954   -08 33 43.45  .57063 1.5721 169.5 21.1 1.42  96
2024 09 07 17  23 46 27.739   -08 35 04.30  .57054 1.5720 169.5 21.1 1.46  96